sat.trackr.live / text

‹ back to catalog

WGS F2 (USA 204)

NORAD 34713 · 2009-017A

PAYLOAD ACTIVE UNKNOWN

§ Identity

Operator
Country
US
Launch date
2009-04-04
Launch site
AFETR
Launch vehicle
Mass (kg)
RCS (m²)
5.01

Purposes: comms

External: N2YO · Heavens-Above · Gunter

§ Orbital elements

Epoch: 2026-09-19T03:33:37.416672Z

Period
1,436.12 min
Inclination
0.0192°
Eccentricity
0.0000376
Mean motion
1.00269869 rev/d
Perigee alt
35,785.5 km
Apogee alt
35,788.7 km
Semi-major
42,165.3 km
B*
0.0000e+0
RAAN
155.3321°
Arg perigee
338.4802°
Mean anomaly
335.1616°
Rev number
4,656

§ Raw data

WGS F2 (USA 204)1 34713U 09017A   26262.14834973  .00000000  00000+0  00000+0 0  99902 34713   0.0192 155.3321 0000376 338.4802 335.1616  1.00269869 46563

JSON: /api/v1/satellites/34713 · /tle

For live sub-satellite position, see the globe view (requires WebGL).

§ Visibility from observer

Set your observer location to see the next 7 days of passes ≥ 10°. The values pass through the URL so the page stays shareable.

No JS? Fill the form by hand. The geolocation button needs JavaScript.